Wind_Speed
33 32 32 31 28 27 28 28 27 26 24 20 19 19 18 17 16 15 14 13 14 14 13 13 12 12 12 12 12 13 14 14 15 15 15 15 14 15 15 15 15 15 16 15
34 33 33 32 31 29 29 29 29 29 26 23 20 19 19 17 16 16 15 15 15 15 14 15 15 14 14 14 14 15 15 15 15 16 16 16 17 16 16 16 17 17 17 17
34 34 34 33 32 31 29 28 29 28 26 24 23 21 20 18 18 18 18 18 17 16 16 16 17 16 16 16 16 17 16 16 16 17 17 18 18 17 17 17 17 18 18 19
35 35 36 33 31 31 29 28 29 28 26 25 25 23 22 20 20 19 20 19 18 17 17 17 17 17 18 17 17 17 17 17 17 18 19 19 18 18 18 18 18 19 20 20
35 37 37 35 33 31 30 29 29 29 29 28 27 27 25 23 22 21 21 20 20 20 19 18 19 19 19 19 19 18 18 18 19 20 20 20 20 19 20 20 20 20 21 21
34 36 37 35 34 32 32 32 31 31 31 31 29 28 26 25 25 25 24 23 22 21 21 20 20 20 20 20 20 20 20 20 20 21 21 21 21 21 21 21 21 22 22 22
34 35 36 35 33 32 33 33 31 31 30 29 30 28 27 27 28 28 27 25 24 23 22 21 20 21 21 22 22 21 21 21 22 22 22 22 22 22 22 22 23 22 23 23
35 34 33 34 33 32 33 32 31 31 30 29 28 29 29 29 29 28 28 26 26 24 23 22 22 22 22 22 23 23 22 22 23 23 23 22 22 22 22 23 23 23 23 23
34 33 32 31 32 32 32 32 31 31 31 30 29 30 30 30 30 30 28 26 26 25 25 24 24 24 24 24 24 25 25 24 24 24 23 23 23 23 23 23 24 24 24 23
33 32 32 31 30 30 31 32 32 31 31 30 31 31 32 32 32 31 29 28 27 26 25 26 26 26 26 26 26 26 25 25 24 24 24 23 24 24 24 25 25 25 25 25
33 33 33 32 31 30 30 30 30 30 30 31 32 33 33 32 31 31 30 28 27 27 27 27 27 27 28 28 28 27 26 26 25 25 25 26 26 26 26 26 26 26 25 25
32 32 32 31 31 31 30 30 31 31 31 30 31 31 32 32 32 31 31 29 28 28 28 27 27 28 29 28 28 27 27 27 27 27 27 27 27 27 27 27 27 27 26 26
31 31 32 32 32 31 31 30 30 31 31 31 31 31 32 33 33 32 31 29 29 29 29 29 29 29 29 29 29 29 28 28 28 28 28 28 28 28 28 27 27 27 27 26
30 31 32 32 31 31 31 31 31 31 31 32 32 31 32 32 32 32 30 28 28 29 29 30 30 30 29 29 29 29 30 29 29 29 29 29 29 29 28 27 28 28 28 28
29 30 31 32 31 30 30 30 30 30 30 31 31 32 32 32 33 32 31 29 29 29 30 31 31 31 30 29 29 30 30 30 29 29 29 29 29 29 29 29 28 28 28 28
28 29 29 29 30 30 30 30 29 30 30 30 30 30 30 31 31 31 31 30 30 30 30 30 31 31 30 29 29 29 30 30 30 29 29 30 30 29 29 29 29 28 28 28
26 26 26 26 27 27 27 27 27 28 29 29 30 29 29 29 29 29 29 29 29 29 29 30 31 30 30 29 29 29 29 29 28 28 28 28 28 29 29 29 29 29 29 29
23 23 24 24 24 25 25 24 25 25 24 25 27 27 27 27 28 28 27 28 28 29 29 29 29 29 29 29 29 29 28 28 28 28 28 28 29 29 30 30 30 30 30 30
21 22 22 22 23 24 24 23 23 23 24 25 26 27 27 27 27 27 27 27 27 28 28 28 29 28 28 27 28 28 29 29 29 29 29 30 30 31 31 31 31 31 31 31
20 21 22 22 22 23 23 23 23 23 24 24 25 26 27 27 28 28 28 28 29 29 29 29 29 29 28 28 28 29 29 29 29 30 30 30 30 31 32 32 31 31 31 31
18 19 20 22 22 22 22 23 24 24 25 26 26 26 27 27 28 28 28 28 28 29 29 28 28 28 28 28 28 29 29 29 29 30 31 31 31 32 32 32 32 32 32 31
19 19 19 20 21 22 22 22 24 25 26 27 27 27 27 27 27 27 28 28 28 28 28 28 27 28 28 29 29 28 29 29 29 30 30 30 31 31 31 31 31 31 30 29
18 19 18 18 20 21 22 22 22 24 25 26 26 27 27 26 27 27 27 27 27 28 27 27 27 27 28 28 28 28 29 29 29 30 30 29 30 30 30 29 29 29 28 27
19 20 19 18 19 20 20 20 21 22 23 24 25 25 25 25 26 26 27 27 27 27 27 27 27 27 27 27 27 28 28 28 28 29 29 29 29 29 29 28 28 27 27 27
20 20 20 20 21 21 21 21 21 21 22 23 24 24 24 25 25 25 26 26 27 26 26 26 27 27 27 27 27 27 27 27 27 28 28 28 27 27 27 28 28 27 26 26
20 20 20 20 21 22 22 22 22 22 23 23 23 22 22 23 23 24 24 24 25 26 26 26 26 26 26 26 27 26 26 26 26 25 25 25 26 26 26 26 25 25 24 24
19 19 19 20 20 20 20 20 21 22 22 22 22 22 22 22 22 22 23 23 24 24 25 25 25 26 26 25 25 25 25 24 24 24 24 24 24 24 24 23 23 23 24 24
Wind_Direction
220 219 220 222 223 226 229 233 237 240 242 247 252 254 257 261 262 269 270 274 280 282 283 282 284 285 286 286 291 295 298 298 298 304 307 309 307 310 310 310 312 313 314 313
219 219 221 224 224 224 227 232 237 241 243 245 251 252 256 260 263 266 265 269 276 278 280 278 279 283 287 285 290 293 294 298 300 302 304 307 308 307 307 308 309 309 309 309
220 219 221 223 224 226 228 232 237 242 245 244 245 249 254 260 265 267 269 269 271 272 276 277 279 282 286 288 289 291 292 296 300 301 302 304 306 305 305 306 308 309 308 307
221 220 222 223 224 228 232 235 237 240 243 243 246 249 252 258 262 267 272 270 267 272 275 276 280 282 284 284 286 288 289 292 295 298 300 301 301 302 303 303 305 308 308 307
221 222 224 223 225 229 232 236 237 241 243 243 245 250 255 258 261 266 270 271 273 274 274 275 278 280 281 280 283 287 289 290 292 294 296 297 298 299 301 302 302 305 307 307
224 225 227 226 226 230 233 237 238 241 243 245 244 250 251 255 259 262 265 267 268 270 273 275 276 277 279 280 280 283 286 288 290 292 293 296 297 299 300 300 302 304 306 306
226 228 229 228 227 229 233 238 240 242 243 246 247 249 252 254 258 262 265 265 267 269 270 271 273 275 277 279 280 283 284 286 288 290 291 293 295 297 300 301 301 302 304 305
226 229 230 230 229 231 235 239 241 242 243 245 249 252 255 257 259 261 264 265 265 264 265 268 271 273 275 278 280 281 283 284 286 288 289 291 293 295 298 301 301 301 302 302
228 232 233 233 234 235 237 241 243 245 247 251 253 254 256 258 260 262 262 263 264 262 263 267 269 270 273 276 278 281 283 283 284 285 287 288 290 294 296 297 299 301 302 302
229 232 233 234 235 236 238 240 242 246 249 252 254 256 257 257 258 260 261 262 262 263 264 267 268 269 271 273 277 280 282 283 283 282 283 285 288 290 293 294 296 298 299 300
231 232 234 237 236 237 238 241 244 246 249 252 252 254 255 257 259 259 260 260 262 263 266 267 267 269 271 272 275 277 279 281 281 281 281 283 286 289 292 293 294 295 296 298
231 233 237 240 242 243 243 242 244 246 249 251 253 256 256 257 259 259 259 261 261 263 265 265 266 268 270 271 274 276 276 278 280 281 282 283 284 287 289 290 291 293 294 295
232 236 240 241 242 244 246 246 247 248 251 253 253 254 255 256 258 260 260 260 261 262 263 264 265 267 268 270 272 274 275 276 277 279 281 282 282 284 286 287 288 290 292 293
234 237 240 243 244 243 245 248 249 249 251 253 251 255 256 255 255 257 259 261 262 263 264 266 269 269 268 270 271 272 273 274 275 277 279 280 283 283 283 284 287 288 290 291
233 237 240 242 244 244 244 248 250 251 253 252 254 255 255 255 255 257 259 260 263 264 266 268 269 270 269 270 272 274 274 275 275 277 279 280 281 282 282 283 286 287 288 289
236 237 240 244 247 249 250 249 250 251 254 255 255 256 256 257 257 258 260 262 264 266 268 269 271 271 270 271 273 274 275 275 276 277 279 280 280 281 282 284 286 287 287 287
239 240 245 249 251 252 252 252 253 255 257 258 258 257 257 258 257 258 259 262 264 266 268 270 271 271 271 273 274 275 275 276 277 278 280 281 280 281 283 284 285 289 288 286
244 244 246 250 253 252 250 251 252 255 256 257 259 260 260 259 259 260 262 263 265 266 268 269 269 270 271 274 274 275 276 278 279 279 279 280 281 282 283 285 287 288 290 288
248 248 249 251 252 253 252 253 255 257 258 260 263 264 263 263 263 263 262 264 265 266 267 267 269 271 271 271 272 273 276 277 278 278 279 280 280 282 283 285 286 288 290 289
250 251 252 251 251 253 254 255 256 257 259 261 263 263 262 262 262 263 264 266 267 267 267 267 267 269 271 270 271 273 274 276 277 278 278 280 282 284 286 286 286 287 288 289
252 253 254 254 255 257 260 260 258 258 258 260 262 262 262 263 263 262 264 266 267 268 267 267 267 269 271 271 272 272 273 274 276 278 279 281 283 284 285 286 286 286 286 288
253 255 258 257 256 259 261 262 261 261 262 262 262 263 263 264 263 263 263 264 266 266 266 266 268 270 272 272 273 274 275 275 276 278 280 281 282 283 284 285 287 287 287 287
255 257 259 259 261 262 263 263 262 262 262 264 264 263 263 262 262 262 262 263 262 262 264 266 268 270 271 274 274 275 277 278 277 278 280 282 282 283 284 285 286 287 287 288
260 261 262 266 268 267 265 263 263 262 263 264 264 263 262 262 262 262 262 262 261 263 266 268 269 270 271 273 275 277 278 278 278 278 280 282 284 283 283 284 285 286 287 288
263 265 267 268 267 267 267 266 265 264 264 266 266 264 262 262 261 261 261 260 261 263 265 267 267 268 271 273 276 277 279 280 280 280 281 282 283 284 284 285 286 285 285 286
267 267 268 269 267 267 268 268 268 268 268 267 267 266 264 264 263 263 261 260 260 262 265 267 269 270 272 274 276 277 279 279 279 281 282 282 282 283 285 286 286 286 286 285
267 267 267 268 268 269 268 269 269 270 270 269 268 267 267 266 264 263 263 262 263 264 266 267 269 270 272 273 275 276 277 278 279 280 281 282 281 281 282 282 283 285 286 286
Height
5862 5866 5870 5873 5877 5880 5882 5884 5887 5889 5891 5894 5895 5896 5898 5899 5900 5900 5901 5902 5903 5903 5903 5903 5902 5902 5901 5901 5900 5899 5897 5896 5895 5893 5892 5890 5888 5887 5885 5883 5881 5878 5876 5874
5856 5860 5863 5867 5871 5874 5877 5879 5882 5884 5886 5889 5891 5892 5893 5894 5895 5896 5897 5898 5899 5899 5899 5898 5898 5898 5898 5897 5896 5895 5893 5892 5891 5889 5888 5886 5884 5883 5881 5879 5877 5874 5872 5870
5849 5854 5857 5861 5865 5868 5871 5874 5876 5878 5882 5884 5885 5887 5888 5890 5891 5892 5893 5894 5894 5894 5894 5894 5894 5894 5893 5892 5891 5890 5889 5887 5886 5885 5883 5882 5880 5878 5877 5875 5872 5870 5868 5865
5842 5847 5850 5857 5860 5863 5866 5868 5871 5874 5876 5878 5880 5882 5883 5884 5885 5887 5888 5889 5889 5889 5890 5890 5890 5889 5888 5887 5886 5885 5884 5883 5882 5881 5879 5878 5876 5874 5872 5870 5868 5866 5863 5861
5835 5839 5843 5850 5853 5857 5860 5862 5865 5868 5870 5872 5874 5876 5877 5879 5880 5881 5882 5884 5884 5885 5885 5885 5885 5884 5883 5883 5882 5880 5879 5878 5877 5876 5874 5873 5871 5869 5867 5865 5862 5860 5858 5855
5828 5832 5837 5844 5848 5850 5854 5856 5859 5861 5863 5865 5867 5869 5871 5873 5874 5875 5876 5877 5878 5879 5879 5879 5879 5878 5878 5877 5876 5875 5874 5873 5872 5871 5869 5867 5866 5864 5862 5859 5857 5855 5852 5850
5821 5825 5831 5836 5840 5844 5847 5850 5852 5854 5857 5859 5861 5863 5866 5867 5869 5869 5870 5870 5871 5872 5872 5872 5872 5872 5872 5871 5871 5870 5869 5868 5866 5865 5863 5862 5860 5858 5856 5854 5851 5849 5846 5844
5815 5819 5826 5829 5833 5837 5840 5843 5845 5848 5850 5852 5855 5857 5859 5860 5861 5862 5863 5863 5864 5865 5865 5866 5866 5866 5865 5865 5865 5864 5863 5862 5860 5859 5858 5856 5854 5852 5850 5848 5846 5843 5840 5838
5810 5815 5819 5822 5827 5830 5833 5836 5838 5841 5844 5846 5848 5849 5851 5852 5853 5854 5855 5856 5856 5856 5858 5859 5859 5859 5859 5858 5858 5857 5856 5855 5853 5852 5851 5849 5848 5846 5844 5842 5839 5837 5834 5832
5803 5807 5811 5816 5819 5822 5825 5828 5831 5834 5836 5838 5840 5842 5842 5844 5845 5846 5848 5849 5849 5850 5851 5851 5851 5851 5851 5851 5851 5850 5849 5848 5846 5845 5844 5843 5841 5839 5837 5835 5833 5831 5828 5826
5797 5801 5805 5808 5811 5815 5818 5821 5824 5826 5828 5830 5831 5833 5834 5836 5837 5838 5839 5840 5841 5843 5843 5843 5843 5843 5844 5843 5843 5842 5841 5840 5839 5838 5837 5836 5834 5832 5830 5828 5826 5824 5821 5819
5790 5795 5799 5802 5804 5807 5809 5813 5816 5818 5820 5821 5823 5824 5826 5828 5830 5831 5831 5832 5833 5834 5835 5835 5835 5835 5835 5835 5835 5834 5833 5832 5831 5830 5828 5827 5826 5825 5823 5821 5819 5816 5814 5812
5785 5789 5792 5795 5797 5799 5802 5805 5807 5809 5811 5813 5815 5816 5818 5819 5821 5822 5822 5823 5824 5825 5826 5827 5827 5826 5826 5826 5826 5825 5825 5824 5823 5822 5820 5819 5818 5816 5815 5813 5811 5809 5806 5804
5779 5782 5785 5787 5789 5791 5794 5796 5799 5800 5803 5805 5806 5808 5809 5810 5812 5813 5814 5815 5816 5817 5817 5818 5817 5817 5817 5817 5816 5816 5816 5815 5814 5813 5812 5810 5809 5807 5806 5805 5803 5800 5798 5796
5772 5775 5778 5780 5782 5783 5785 5788 5790 5791 5793 5795 5797 5798 5800 5801 5802 5804 5805 5806 5807 5808 5808 5808 5808 5808 5807 5807 5807 5807 5806 5806 5805 5804 5803 5802 5800 5798 5797 5796 5794 5792 5790 5788
5765 5768 5771 5773 5775 5777 5778 5780 5782 5783 5784 5786 5788 5789 5790 5791 5792 5794 5795 5796 5797 5798 5798 5798 5798 5798 5798 5797 5797 5797 5797 5796 5796 5795 5794 5793 5791 5790 5788 5787 5785 5782 5781 5779
5759 5762 5764 5766 5768 5769 5771 5772 5773 5774 5776 5778 5780 5780 5781 5783 5783 5784 5786 5787 5788 5789 5789 5789 5789 5789 5788 5789 5789 5789 5788 5787 5787 5786 5785 5784 5782 5781 5779 5777 5776 5774 5772 5771
5753 5755 5757 5759 5760 5762 5763 5764 5766 5767 5768 5769 5771 5772 5773 5774 5775 5776 5777 5778 5779 5779 5780 5780 5780 5780 5780 5780 5780 5780 5780 5779 5778 5777 5776 5775 5774 5773 5771 5769 5767 5766 5764 5762
5747 5749 5750 5752 5754 5755 5756 5758 5758 5759 5761 5762 5763 5764 5765 5766 5767 5768 5769 5769 5770 5771 5771 5771 5771 5771 5771 5771 5771 5771 5771 5770 5769 5768 5767 5766 5765 5764 5762 5760 5759 5757 5755 5753
5740 5742 5744 5746 5747 5748 5749 5750 5751 5752 5753 5754 5755 5756 5757 5758 5759 5759 5760 5761 5762 5762 5762 5762 5762 5762 5762 5762 5762 5761 5761 5761 5760 5759 5758 5756 5755 5754 5753 5751 5749 5748 5746 5744
5734 5736 5737 5739 5740 5741 5742 5743 5744 5745 5745 5746 5747 5747 5748 5748 5749 5750 5750 5751 5752 5752 5752 5752 5753 5753 5753 5753 5753 5752 5752 5751 5751 5750 5748 5747 5746 5744 5743 5741 5740 5738 5736 5734
5728 5730 5731 5732 5733 5734 5735 5735 5736 5736 5737 5737 5738 5738 5739 5739 5740 5740 5741 5742 5742 5742 5743 5743 5744 5744 5744 5744 5743 5743 5742 5741 5741 5740 5739 5737 5736 5734 5733 5731 5729 5728 5726 5725
5723 5724 5725 5726 5726 5727 5728 5728 5728 5728 5728 5729 5729 5729 5729 5730 5730 5731 5731 5732 5733 5733 5734 5735 5735 5735 5735 5735 5734 5733 5733 5732 5731 5730 5729 5728 5726 5725 5723 5721 5720 5718 5717 5715
5717 5718 5718 5719 5719 5720 5720 5720 5720 5720 5720 5720 5719 5719 5720 5720 5720 5721 5722 5722 5723 5723 5724 5725 5725 5726 5726 5725 5725 5724 5723 5722 5721 5720 5719 5718 5717 5715 5714 5712 5711 5709 5708 5706
5712 5712 5712 5712 5713 5713 5713 5713 5712 5712 5712 5711 5710 5710 5710 5710 5711 5712 5712 5713 5714 5714 5715 5715 5716 5716 5716 5716 5716 5715 5714 5713 5712 5711 5710 5709 5707 5706 5705 5703 5702 5700 5699 5698
5706 5706 5706 5706 5706 5705 5705 5705 5705 5705 5704 5704 5703 5703 5702 5702 5702 5703 5703 5704 5705 5705 5706 5707 5707 5707 5707 5707 5707 5706 5705 5704 5703 5702 5701 5700 5698 5697 5696 5695 5693 5692 5691 5689
5700 5700 5700 5699 5699 5698 5698 5697 5697 5697 5696 5696 5695 5695 5695 5694 5694 5695 5695 5696 5696 5697 5698 5698 5699 5699 5699 5698 5698 5697 5696 5695 5694 5693 5692 5691 5690 5689 5688 5686 5685 5684 5683 5681